User: anonymous   Login
Location: Unspecified
(0.0000°N, 0.0000°E)
Time: 18:49:28
(UTC+00:00)
Language:

Orbcomm F1 (FM01) - Orbit

View from above orbital plane
View from above orbital plane
View from above satellite
View from above satellite

Ground track
Ground track

The orbit data is extracted from the following two-line orbital elements,

1 23545U 95017A   17145.93870172 +.00000343 +00000-0 +68190-4 0  9994
2 23545 069.9710 034.0057 0006434 333.8715 026.2104 14.70734851178583
Epoch (UTC): 25 May 2017 22:31:43
Eccentricity: 0.0006434
inclination: 69.9710°
perigee height: 654 km
apogee height: 663 km
right ascension of ascending node: 34.0057°
argument of perigee: 333.8715°
revolutions per day: 14.70734851
mean anomaly at epoch: 26.2104°
orbit number at epoch: 17858

The dashed part of the orbit path shows where the satellite is in the earth's shadow,  

DLR